WAT5349 EDJA-LSZB

Flight info

Callsign WAT5349
Flight time 0h 37m
Altitude 26000
Route DCT
Aircraft TBM9/L-SDFGRWY/S

Departure

Time 2026-04-29 13:59
Airport Memmingen Allgau Airport (EDJA)

Arrival

Time 2026-04-29 14:37
Airport Bern Airport (LSZB)
Time Latitude Longitude Altitude Speed Heading
2026-04-29 13:44 47.98630 10.23669 2073 ft 0 kts 329°
2026-04-29 13:56 47.98639 10.23661 2073 ft 6 kts 331°
2026-04-29 13:57 47.98658 10.23646 2073 ft 2 kts 332°
2026-04-29 13:57 47.98725 10.23590 2076 ft 7 kts 345°
2026-04-29 13:57 47.98748 10.23613 2075 ft 2 kts 66°
2026-04-29 13:58 47.98830 10.23822 2073 ft 57 kts 60°
2026-04-29 13:58 47.99150 10.24595 2138 ft 110 kts 57°
2026-04-29 13:59 47.99598 10.25619 2595 ft 121 kts 55°
2026-04-29 13:59 47.99822 10.26767 3272 ft 117 kts 103°
2026-04-29 13:59 47.99573 10.27557 3457 ft 136 kts 131°
2026-04-29 13:59 47.98392 10.28274 4036 ft 148 kts 180°
2026-04-29 14:00 47.97669 10.28221 4173 ft 166 kts 185°
2026-04-29 14:00 47.96472 10.28082 4623 ft 175 kts 185°
2026-04-29 14:00 47.95243 10.27959 5124 ft 177 kts 186°
2026-04-29 14:00 47.93972 10.27805 5599 ft 187 kts 186°
2026-04-29 14:01 47.92636 10.27497 5887 ft 199 kts 198°
2026-04-29 14:01 47.91381 10.26606 6153 ft 208 kts 205°
2026-04-29 14:01 47.90039 10.25699 6448 ft 214 kts 208°
2026-04-29 14:01 47.88784 10.24527 6784 ft 218 kts 210°
2026-04-29 14:02 47.87280 10.23862 6798 ft 231 kts 188°
2026-04-29 14:02 47.85679 10.23622 7051 ft 231 kts 186°
2026-04-29 14:02 47.84075 10.23436 7305 ft 231 kts 185°
2026-04-29 14:02 47.82469 10.23276 7556 ft 231 kts 185°
2026-04-29 14:03 47.80859 10.23129 7806 ft 232 kts 184°
2026-04-29 14:03 47.79308 10.22989 8046 ft 232 kts 184°
2026-04-29 14:03 47.77694 10.22844 8295 ft 232 kts 184°
2026-04-29 14:03 47.76075 10.22697 8540 ft 233 kts 185°
2026-04-29 14:04 47.74458 10.22549 8793 ft 234 kts 185°
2026-04-29 14:04 47.72802 10.22397 8816 ft 243 kts 185°
2026-04-29 14:04 47.71091 10.22233 8819 ft 249 kts 185°
2026-04-29 14:04 47.69345 10.22068 8821 ft 253 kts 185°
2026-04-29 14:05 47.67583 10.21902 8823 ft 255 kts 185°
2026-04-29 14:05 47.65812 10.21731 8819 ft 256 kts 185°
2026-04-29 14:05 47.64032 10.21560 8823 ft 257 kts 185°
2026-04-29 14:05 47.62247 10.21392 8823 ft 257 kts 184°
2026-04-29 14:06 47.60482 10.21229 8822 ft 257 kts 185°
2026-04-29 14:06 47.58696 10.21058 8821 ft 257 kts 185°
2026-04-29 14:06 47.56900 10.20755 8824 ft 257 kts 197°
2026-04-29 14:06 47.55419 10.19404 8832 ft 256 kts 228°
2026-04-29 14:07 47.54629 10.17131 9143 ft 245 kts 253°
2026-04-29 14:07 47.54238 10.14723 9497 ft 237 kts 258°
2026-04-29 14:07 47.53911 10.12347 9804 ft 235 kts 259°
2026-04-29 14:07 47.53592 10.09918 9816 ft 245 kts 259°
2026-04-29 14:08 47.53273 10.07408 9818 ft 251 kts 259°
2026-04-29 14:08 47.52950 10.04844 9819 ft 255 kts 260°
2026-04-29 14:08 47.52623 10.02256 9822 ft 257 kts 259°
2026-04-29 14:08 47.52291 9.99648 9825 ft 258 kts 259°
2026-04-29 14:09 47.51975 9.97174 9820 ft 259 kts 259°
2026-04-29 14:09 47.51642 9.94549 9820 ft 260 kts 259°
2026-04-29 14:09 47.51312 9.91923 9820 ft 260 kts 259°
2026-04-29 14:09 47.50976 9.89293 9819 ft 260 kts 259°
2026-04-29 14:10 47.50638 9.86662 9817 ft 260 kts 259°
2026-04-29 14:10 47.50305 9.84038 9816 ft 260 kts 259°
2026-04-29 14:10 47.49971 9.81411 9814 ft 260 kts 259°
2026-04-29 14:10 47.49631 9.78780 9816 ft 261 kts 259°
2026-04-29 14:11 47.49297 9.76144 9812 ft 261 kts 259°
2026-04-29 14:11 47.48961 9.73516 9813 ft 260 kts 259°
2026-04-29 14:11 47.48625 9.70880 9815 ft 261 kts 259°
2026-04-29 14:11 47.48290 9.68251 9815 ft 260 kts 259°
2026-04-29 14:12 47.47954 9.65621 9812 ft 261 kts 259°
2026-04-29 14:12 47.47616 9.62987 9814 ft 261 kts 259°
2026-04-29 14:12 47.47279 9.60356 9811 ft 260 kts 259°
2026-04-29 14:12 47.46941 9.57724 9816 ft 261 kts 259°
2026-04-29 14:13 47.46602 9.55091 9814 ft 261 kts 259°
2026-04-29 14:13 47.46262 9.52464 9810 ft 260 kts 259°
2026-04-29 14:13 47.45928 9.49869 9811 ft 260 kts 259°
2026-04-29 14:13 47.45591 9.47248 9811 ft 260 kts 259°
2026-04-29 14:14 47.45251 9.44624 9812 ft 260 kts 259°
2026-04-29 14:14 47.44915 9.42000 9812 ft 260 kts 259°
2026-04-29 14:14 47.44575 9.39378 9813 ft 260 kts 259°
2026-04-29 14:14 47.44236 9.36756 9818 ft 260 kts 259°
2026-04-29 14:15 47.43897 9.34132 9813 ft 260 kts 259°
2026-04-29 14:15 47.43558 9.31506 9814 ft 260 kts 259°
2026-04-29 14:15 47.43220 9.28889 9813 ft 260 kts 259°
2026-04-29 14:15 47.42882 9.26267 9815 ft 260 kts 259°
2026-04-29 14:16 47.42543 9.23641 9813 ft 260 kts 259°
2026-04-29 14:16 47.42203 9.21018 9813 ft 260 kts 259°
2026-04-29 14:16 47.41862 9.18394 9816 ft 260 kts 259°
2026-04-29 14:16 47.41520 9.15762 9814 ft 261 kts 259°
2026-04-29 14:17 47.41179 9.13130 9814 ft 260 kts 259°
2026-04-29 14:17 47.40837 9.10504 9815 ft 260 kts 259°
2026-04-29 14:17 47.40496 9.07880 9811 ft 261 kts 259°
2026-04-29 14:17 47.40161 9.05294 9816 ft 261 kts 259°
2026-04-29 14:18 47.39820 9.02670 9811 ft 260 kts 259°
2026-04-29 14:18 47.39477 9.00044 9813 ft 260 kts 259°
2026-04-29 14:18 47.39174 8.97744 9811 ft 261 kts 259°
2026-04-29 14:18 47.38832 8.95116 9810 ft 260 kts 259°
2026-04-29 14:19 47.38490 8.92492 9814 ft 260 kts 259°
2026-04-29 14:19 47.38148 8.89867 9810 ft 260 kts 259°
2026-04-29 14:19 47.37806 8.87247 9811 ft 260 kts 259°
2026-04-29 14:19 47.37463 8.84618 9813 ft 261 kts 259°
2026-04-29 14:20 47.37126 8.82029 9816 ft 261 kts 259°
2026-04-29 14:20 47.36784 8.79402 9811 ft 261 kts 259°
2026-04-29 14:20 47.36440 8.76773 9813 ft 261 kts 259°
2026-04-29 14:20 47.36096 8.74143 9818 ft 261 kts 259°
2026-04-29 14:21 47.35751 8.71513 9812 ft 261 kts 259°
2026-04-29 14:21 47.35408 8.68886 9816 ft 261 kts 259°
2026-04-29 14:21 47.35064 8.66269 9817 ft 260 kts 259°
2026-04-29 14:21 47.34719 8.63646 9812 ft 260 kts 259°
2026-04-29 14:22 47.34375 8.61026 9815 ft 261 kts 259°
2026-04-29 14:22 47.34030 8.58403 9812 ft 260 kts 259°
2026-04-29 14:22 47.33688 8.55781 9812 ft 261 kts 259°
2026-04-29 14:22 47.33342 8.53156 9813 ft 261 kts 259°
2026-04-29 14:23 47.32997 8.50534 9810 ft 260 kts 259°
2026-04-29 14:23 47.32652 8.47913 9811 ft 261 kts 259°
2026-04-29 14:23 47.32254 8.45310 9811 ft 260 kts 253°
2026-04-29 14:23 47.31657 8.42795 9810 ft 260 kts 250°
2026-04-29 14:24 47.31012 8.40300 9811 ft 263 kts 249°
2026-04-29 14:24 47.30344 8.37757 9813 ft 269 kts 249°
2026-04-29 14:24 47.29668 8.35157 9815 ft 273 kts 249°
2026-04-29 14:24 47.28989 8.32531 9818 ft 275 kts 249°
2026-04-29 14:25 47.28206 8.29954 9809 ft 277 kts 240°
2026-04-29 14:25 47.27140 8.27597 9816 ft 277 kts 235°
2026-04-29 14:25 47.26018 8.25302 9809 ft 275 kts 234°
2026-04-29 14:25 47.24893 8.23030 9884 ft 272 kts 234°
2026-04-29 14:26 47.23786 8.20812 9997 ft 269 kts 234°
2026-04-29 14:26 47.22672 8.18587 9994 ft 271 kts 234°
2026-04-29 14:26 47.21557 8.16350 9992 ft 272 kts 234°
2026-04-29 14:26 47.20450 8.14131 9992 ft 272 kts 234°
2026-04-29 14:27 47.19331 8.11881 9994 ft 273 kts 234°
2026-04-29 14:27 47.18206 8.09628 9994 ft 273 kts 234°
2026-04-29 14:27 47.17087 8.07382 9993 ft 272 kts 234°
2026-04-29 14:28 47.14843 8.02893 9995 ft 273 kts 234°
2026-04-29 14:28 47.13719 8.00644 9994 ft 273 kts 234°
2026-04-29 14:28 47.12597 7.98402 9992 ft 273 kts 234°
2026-04-29 14:28 47.11474 7.96155 9993 ft 273 kts 234°
2026-04-29 14:29 47.10356 7.93912 9993 ft 272 kts 234°
2026-04-29 14:29 47.09233 7.91667 9998 ft 273 kts 234°
2026-04-29 14:29 47.08110 7.89426 9992 ft 273 kts 234°
2026-04-29 14:29 47.07027 7.87259 9999 ft 273 kts 234°
2026-04-29 14:30 47.05905 7.85016 9992 ft 272 kts 234°
2026-04-29 14:30 47.04783 7.82781 9994 ft 272 kts 234°
2026-04-29 14:30 47.03660 7.80544 9994 ft 272 kts 234°
2026-04-29 14:30 47.02541 7.78312 9995 ft 272 kts 234°
2026-04-29 14:31 47.01415 7.76074 9997 ft 273 kts 234°
2026-04-29 14:31 47.00289 7.73838 9993 ft 273 kts 234°
2026-04-29 14:31 46.99165 7.71596 9993 ft 273 kts 234°
2026-04-29 14:31 46.98040 7.69350 9994 ft 273 kts 234°
2026-04-29 14:32 46.96919 7.67113 9994 ft 272 kts 234°
2026-04-29 14:32 46.95797 7.64877 9992 ft 272 kts 234°
2026-04-29 14:32 46.94671 7.62651 9994 ft 273 kts 234°
2026-04-29 14:32 46.93544 7.60416 9992 ft 273 kts 234°
2026-04-29 14:33 46.92417 7.58181 9995 ft 273 kts 234°
2026-04-29 14:33 46.91295 7.55947 9991 ft 273 kts 234°
2026-04-29 14:33 46.90269 7.53606 9452 ft 271 kts 246°
2026-04-29 14:33 46.89956 7.50980 8180 ft 265 kts 277°
2026-04-29 14:34 46.90546 7.48515 7498 ft 246 kts 304°
2026-04-29 14:34 46.91775 7.47006 6930 ft 226 kts 341°
2026-04-29 14:34 46.93266 7.47151 6147 ft 217 kts 20°
2026-04-29 14:34 46.94642 7.47229 5947 ft 186 kts 338°
2026-04-29 14:35 46.95542 7.45992 5254 ft 184 kts 287°
2026-04-29 14:35 46.95409 7.44235 4734 ft 175 kts 235°
2026-04-29 14:35 46.94479 7.43375 4631 ft 174 kts 189°
2026-04-29 14:35 46.93206 7.43746 4378 ft 191 kts 152°
2026-04-29 14:36 46.92514 7.45363 3422 ft 200 kts 96°
2026-04-29 14:36 46.92753 7.47390 2409 ft 198 kts 93°
2026-04-29 14:36 46.92174 7.48782 1846 ft 137 kts 139°
2026-04-29 14:36 46.91550 7.49552 1677 ft 101 kts 142°
2026-04-29 14:37 46.91143 7.50042 1678 ft 43 kts 140°
2026-04-29 14:37 46.91067 7.50151 1681 ft 7 kts 101°
2026-04-29 14:37 46.91091 7.50204 1681 ft 8 kts 46°
2026-04-29 14:37 46.91105 7.50270 1679 ft 6 kts 96°
2026-04-29 14:38 46.91110 7.50283 1683 ft 0 kts 48°
2026-04-29 14:38 46.91110 7.50284 1683 ft 0 kts 47°